^^

..:: Storico WU ::..




Lo storico viene creato da WUnderground con i dati che la stazione Meteomincio invia al loro server. L' aggiornamento viene fatto ogni 5 minuti circa, tuttavia possono esserci intervalli pi¨ ampi a causa di errori, interruzioni di servizio o problemi nell' invio tramite FTP.


Storico stazione MeteoMincio
Giorno Sommario per Novembre 12, 2022 Unità:  Inglese    Metrico   Entrambi
Giorno Settimana Mese Anno
  Max: Min: Media:
Temperatura: 56.1 °F 45.5 °F 50 °F
Dew Point: 53.4 °F 44.6 °F 48.9 °F
Umidità: 98% 89% 96%
Velocità vento: 8.4mph 0mph 3.2mph
Raffica: 14mph - -
Direzione- - WSW
Pressione: 30.5 in 30.3 in -
Precipitazioni: 0 in    
 
 
Tabulato Dati per Novembre 12, 2022
Ora Temperatura Dew Point Pressione Direzione Velocità vento Raffica Umidità Intensità pioggia (oraria) Info solare Situazione
00:04 46.4 °F 45.5 °F 30.5 in WSW 2.7 mph 4 mph 97% 0.01 in 0 W/m2
00:09 46.2 °F 45.5 °F 30.5 in West 2.4 mph 5 mph 97% 0 in 0 W/m2
00:14 46.2 °F 45.3 °F 30.5 in WSW 3 mph 5 mph 97% 0 in 0 W/m2
00:19 45.9 °F 45.1 °F 30.5 in WSW 3.2 mph 5 mph 97% 0 in 0 W/m2
00:24 45.7 °F 45 °F 30.5 in West 3.9 mph 6 mph 97% 0 in 0 W/m2
00:29 45.5 °F 44.8 °F 30.5 in West 4 mph 6 mph 97% 0 in 0 W/m2
00:34 45.5 °F 44.6 °F 30.5 in West 3.7 mph 5 mph 97% 0 in 0 W/m2
00:39 45.5 °F 44.8 °F 30.5 in West 3.7 mph 5 mph 97% 0 in 0 W/m2
00:44 45.7 °F 44.8 °F 30.5 in West 3.2 mph 5 mph 97% 0 in 0 W/m2
00:49 45.9 °F 45 °F 30.5 in West 2.5 mph 5 mph 97% 0 in 0 W/m2
00:54 45.9 °F 45.1 °F 30.5 in West 2.4 mph 4 mph 97% 0 in 0 W/m2
00:59 46 °F 45.1 °F 30.5 in WNW 2.7 mph 5 mph 97% 0 in 0 W/m2
01:04 46 °F 45.3 °F 30.5 in WNW 4.7 mph 7 mph 97% 0 in 0 W/m2
01:09 46.2 °F 45.3 °F 30.5 in West 3.8 mph 7 mph 97% 0 in 0 W/m2
01:14 46.4 °F 45.5 °F 30.5 in West 3.2 mph 6 mph 97% 0 in 0 W/m2
01:19 46.6 °F 45.9 °F 30.5 in West 3.5 mph 7 mph 97% 0 in 0 W/m2
01:24 46.8 °F 46 °F 30.5 in West 4.2 mph 7 mph 97% 0 in 0 W/m2
01:29 46.9 °F 46 °F 30.5 in West 3.5 mph 7 mph 97% 0 in 0 W/m2
01:34 46.9 °F 46.2 °F 30.5 in West 2.5 mph 6 mph 97% 0 in 0 W/m2
01:39 47.1 °F 46.4 °F 30.5 in West 3.2 mph 5 mph 97% 0 in 0 W/m2
01:44 47.3 °F 46.4 °F 30.5 in West 3.2 mph 5 mph 97% 0 in 0 W/m2
01:49 47.3 °F 46.6 °F 30.5 in West 2.9 mph 4 mph 97% 0 in 0 W/m2
01:54 47.3 °F 46.6 °F 30.5 in West 2.7 mph 4 mph 97% 0 in 0 W/m2
01:59 47.3 °F 46.6 °F 30.5 in WSW 3.4 mph 5 mph 97% 0 in 0 W/m2
02:04 47.3 °F 46.4 °F 30.5 in WSW 4.2 mph 6 mph 97% 0 in 0 W/m2
02:09 47.3 °F 46.4 °F 30.5 in WSW 3.2 mph 6 mph 97% 0 in 0 W/m2
02:14 47.1 °F 46.4 °F 30.5 in WSW 3.2 mph 6 mph 97% 0 in 0 W/m2
02:19 46.9 °F 46.2 °F 30.5 in West 3.4 mph 6 mph 97% 0 in 0 W/m2
02:24 46.8 °F 46 °F 30.5 in West 3.7 mph 6 mph 97% 0 in 0 W/m2
02:29 46.6 °F 45.9 °F 30.5 in West 3.4 mph 6 mph 97% 0 in 0 W/m2
02:34 46.6 °F 45.9 °F 30.5 in WSW 2.9 mph 6 mph 97% 0 in 0 W/m2
02:39 46.6 °F 45.9 °F 30.5 in WSW 2.9 mph 6 mph 97% 0 in 0 W/m2
02:44 46.8 °F 45.9 °F 30.5 in West 1.9 mph 3.5 mph 97% 0 in 0 W/m2
02:49 46.9 °F 46 °F 30.5 in West 2.9 mph 5 mph 97% 0 in 0 W/m2
02:54 47.1 °F 46.2 °F 30.5 in West 2.7 mph 5 mph 97% 0 in 0 W/m2
02:59 47.3 °F 46.4 °F 30.5 in West 2.9 mph 5 mph 97% 0 in 0 W/m2
03:04 47.3 °F 46.6 °F 30.5 in West 3.4 mph 5 mph 97% 0 in 0 W/m2
03:09 47.5 °F 46.6 °F 30.5 in West 3.2 mph 5 mph 97% 0 in 0 W/m2
03:14 47.5 °F 46.6 °F 30.5 in WSW 2.9 mph 5 mph 97.2% 0 in 0 W/m2
03:19 47.5 °F 46.6 °F 30.5 in West 3 mph 5 mph 97% 0 in 0 W/m2
03:24 47.5 °F 46.6 °F 30.5 in West 2.9 mph 5 mph 97% 0 in 0 W/m2
03:29 47.5 °F 46.8 °F 30.5 in West 2.9 mph 4 mph 97% 0 in 0 W/m2
03:34 47.7 °F 46.9 °F 30.5 in West 3.7 mph 6 mph 97.3% 0 in 0 W/m2
03:39 47.7 °F 47.1 °F 30.5 in West 3.3 mph 6 mph 97.8% 0 in 0 W/m2
03:44 47.7 °F 47.1 °F 30.5 in West 4.8 mph 8.1 mph 98% 0 in 0 W/m2
03:49 47.7 °F 47.1 °F 30.5 in West 3.2 mph 8 mph 97.6% 0 in 0 W/m2
03:54 47.7 °F 46.9 °F 30.5 in West 3.9 mph 7 mph 97.4% 0 in 0 W/m2
03:59 47.7 °F 47.1 °F 30.5 in West 3.7 mph 7 mph 97.6% 0 in 0 W/m2
04:04 47.7 °F 47.1 °F 30.5 in West 5 mph 7 mph 97.5% 0 in 0 W/m2
04:09 47.8 °F 47.1 °F 30.5 in West 3.9 mph 7 mph 97.4% 0 in 0 W/m2
04:14 47.7 °F 46.9 °F 30.5 in West 3.5 mph 7 mph 97% 0 in 0 W/m2
04:19 47.7 °F 46.8 °F 30.5 in West 3.4 mph 6 mph 97% 0 in 0 W/m2
04:24 47.5 °F 46.8 °F 30.5 in West 4 mph 6 mph 97% 0 in 0 W/m2
04:29 47.5 °F 46.8 °F 30.5 in West 3.4 mph 6 mph 97% 0 in 0 W/m2
04:34 47.7 °F 46.8 °F 30.5 in West 4.3 mph 6 mph 97% 0 in 0 W/m2
04:39 47.7 °F 46.8 °F 30.5 in West 4.1 mph 7 mph 97% 0 in 0 W/m2
04:44 47.7 °F 46.9 °F 30.5 in West 4 mph 7 mph 97.1% 0 in 0 W/m2
04:49 47.7 °F 46.9 °F 30.5 in West 4 mph 7 mph 97.1% 0 in 0 W/m2
04:54 47.7 °F 47.1 °F 30.5 in WSW 4.5 mph 8 mph 97.6% 0 in 0 W/m2
04:59 47.7 °F 47.1 °F 30.5 in WSW 4.2 mph 8.1 mph 97.8% 0 in 0 W/m2
05:04 47.7 °F 47.1 °F 30.5 in WSW 2.5 mph 8 mph 97.9% 0 in 0 W/m2
05:09 47.7 °F 47.1 °F 30.5 in West 3.9 mph 8 mph 97.8% 0 in 0 W/m2
05:14 47.7 °F 47.1 °F 30.5 in West 5.8 mph 8.1 mph 97.8% 0 in 0 W/m2
05:19 47.7 °F 47.1 °F 30.5 in West 5.7 mph 9.2 mph 98% 0 in 0 W/m2
05:24 47.7 °F 47.1 °F 30.5 in West 6 mph 9.2 mph 98% 0 in 0 W/m2
05:29 47.7 °F 47.1 °F 30.5 in WNW 4.1 mph 9 mph 98% 0 in 0 W/m2
05:34 47.8 °F 47.3 °F 30.5 in West 5.1 mph 8.1 mph 98% 0 in 0 W/m2
05:39 47.8 °F 47.5 °F 30.5 in West 4.4 mph 8 mph 98% 0 in 0 W/m2
05:44 48 °F 47.5 °F 30.5 in West 3.8 mph 7 mph 98% 0 in 0 W/m2
05:49 48 °F 47.5 °F 30.5 in West 4.3 mph 6 mph 98% 0 in 0 W/m2
05:54 48 °F 47.5 °F 30.5 in West 3.5 mph 6 mph 98% 0 in 0 W/m2
05:59 47.8 °F 47.5 °F 30.5 in West 3.2 mph 7 mph 98% 0 in 0 W/m2
06:04 48 °F 47.5 °F 30.5 in West 3.4 mph 7 mph 98% 0 in 0 W/m2
06:09 47.8 °F 47.5 °F 30.5 in West 4.2 mph 7 mph 98% 0 in 0 W/m2
06:14 47.8 °F 47.3 °F 30.5 in West 4.3 mph 7 mph 98% 0 in 0 W/m2
06:19 47.7 °F 47.1 °F 30.5 in West 4.5 mph 7 mph 98% 0 in 0 W/m2
06:24 47.7 °F 47.3 °F 30.5 in WSW 5.1 mph 8.1 mph 98% 0 in 0 W/m2
06:29 47.8 °F 47.3 °F 30.5 in WSW 4.5 mph 9.2 mph 98% 0 in 0 W/m2
06:34 47.8 °F 47.3 °F 30.5 in West 4.2 mph 9 mph 98% 0 in 0 W/m2
06:39 47.8 °F 47.3 °F 30.5 in West 5.1 mph 10.4 mph 98% 0 in 0 W/m2
06:44 47.8 °F 47.3 °F 30.5 in WSW 4.7 mph 10 mph 98% 0 in 0 W/m2
06:49 47.8 °F 47.3 °F 30.5 in WSW 5.8 mph 9.2 mph 98% 0 in 0 W/m2
06:54 47.8 °F 47.3 °F 30.5 in West 5.2 mph 9.2 mph 98% 0 in 0 W/m2
06:59 47.8 °F 47.5 °F 30.5 in West 5.5 mph 9.2 mph 98% 0 in 0 W/m2
07:04 47.8 °F 47.5 °F 30.5 in West 4.6 mph 9.2 mph 98% 0 in 0 W/m2
07:09 47.8 °F 47.3 °F 30.5 in WNW 4.2 mph 9 mph 98% 0 in 0 W/m2
07:14 47.8 °F 47.3 °F 30.5 in West 5.4 mph 8.1 mph 98% 0 in 0 W/m2
07:19 47.7 °F 47.1 °F 30.5 in West 4.9 mph 8.1 mph 98% 0 in 0 W/m2
07:24 47.7 °F 47.1 °F 30.5 in West 6.1 mph 9 mph 98% 0 in 0 W/m2
07:29 47.7 °F 47.1 °F 30.5 in West 6.5 mph 10.4 mph 98% 0 in 7 W/m2
07:34 47.7 °F 47.3 °F 30.5 in WSW 4.8 mph 10 mph 98% 0 in 11 W/m2
07:39 47.8 °F 47.3 °F 30.5 in WSW 5 mph 9.2 mph 98% 0 in 14 W/m2
07:44 47.8 °F 47.3 °F 30.5 in WSW 5.2 mph 8 mph 98% 0 in 16 W/m2
07:49 47.8 °F 47.3 °F 30.5 in West 5.7 mph 8.1 mph 98% 0 in 18 W/m2
07:54 47.8 °F 47.3 °F 30.5 in West 5.5 mph 9.2 mph 98% 0 in 19 W/m2
07:59 47.8 °F 47.5 °F 30.5 in West 5.3 mph 9 mph 98% 0 in 23 W/m2
08:04 48 °F 47.5 °F 30.5 in West 5.5 mph 9.2 mph 98% 0 in 28 W/m2
08:09 48 °F 47.5 °F 30.5 in West 6.2 mph 10.4 mph 98% 0 in 30 W/m2
08:14 48 °F 47.5 °F 30.5 in West 6.8 mph 11.5 mph 98% 0 in 32 W/m2
08:19 48 °F 47.5 °F 30.5 in West 7 mph 12 mph 98% 0 in 33 W/m2
08:24 48 °F 47.7 °F 30.5 in West 6.8 mph 12 mph 98% 0 in 39 W/m2
08:29 48.2 °F 47.7 °F 30.5 in West 4.9 mph 10 mph 98% 0 in 39 W/m2
08:34 48.4 °F 47.8 °F 30.5 in West 4.6 mph 9 mph 98% 0 in 47 W/m2
08:39 48.6 °F 48 °F 30.5 in West 6.6 mph 9.2 mph 98% 0 in 54 W/m2
08:44 48.6 °F 48 °F 30.5 in West 4.9 mph 9.2 mph 98% 0 in 58 W/m2
08:49 48.7 °F 48.2 °F 30.5 in West 4 mph 7 mph 98% 0 in 60 W/m2
08:54 48.9 °F 48.4 °F 30.5 in WNW 4.9 mph 7 mph 98% 0 in 62 W/m2
08:59 48.9 °F 48.4 °F 30.5 in West 5.5 mph 9.2 mph 98% 0 in 65 W/m2
09:04 48.9 °F 48.6 °F 30.5 in West 4.8 mph 9 mph 98% 0 in 72 W/m2
09:09 49.1 °F 48.6 °F 30.5 in West 4.7 mph 11 mph 98% 0 in 90 W/m2
09:14 49.3 °F 48.7 °F 30.5 in West 6.7 mph 11.5 mph 98% 0 in 91 W/m2
09:19 49.3 °F 48.9 °F 30.5 in West 4.8 mph 12 mph 98% 0 in 88 W/m2
09:24 49.5 °F 49.1 °F 30.5 in West 4.1 mph 6 mph 98% 0 in 83 W/m2
09:29 49.6 °F 49.3 °F 30.5 in West 3.4 mph 7 mph 98% 0 in 83 W/m2
09:34 49.8 °F 49.5 °F 30.5 in West 4.3 mph 7 mph 98% 0 in 84 W/m2
09:39 50 °F 49.5 °F 30.5 in West 3.8 mph 7 mph 98% 0 in 100 W/m2
09:44 50 °F 49.6 °F 30.5 in West 6 mph 9.2 mph 98% 0 in 114 W/m2
09:49 50 °F 49.6 °F 30.4 in West 5.7 mph 9 mph 98% 0 in 125 W/m2
09:54 50.2 °F 49.8 °F 30.4 in West 5.6 mph 9.2 mph 98% 0 in 134 W/m2
09:59 50.5 °F 50 °F 30.5 in West 4.7 mph 9 mph 98% 0 in 139 W/m2
10:04 50.5 °F 50 °F 30.5 in West 5.8 mph 9.2 mph 98% 0 in 139 W/m2
10:09 50.7 °F 50.2 °F 30.5 in West 5.2 mph 9 mph 98% 0 in 134 W/m2
10:14 50.7 °F 50.2 °F 30.5 in West 4.7 mph 11 mph 98% 0 in 128 W/m2
10:19 50.9 °F 50.4 °F 30.5 in West 6.6 mph 12 mph 98% 0 in 137 W/m2
10:24 50.9 °F 50.4 °F 30.5 in West 5.8 mph 12 mph 98% 0 in 137 W/m2
10:29 50.7 °F 50.2 °F 30.5 in West 5 mph 10.4 mph 98% 0 in 137 W/m2
10:34 50.9 °F 50.4 °F 30.5 in West 5.2 mph 10 mph 98% 0 in 135 W/m2
10:39 50.9 °F 50.4 °F 30.5 in West 5.7 mph 10.4 mph 98% 0 in 141 W/m2
10:44 50.9 °F 50.4 °F 30.4 in West 7 mph 10.4 mph 98% 0 in 141 W/m2
10:49 50.9 °F 50.5 °F 30.4 in West 6 mph 10 mph 98% 0 in 130 W/m2
10:54 51.3 °F 50.7 °F 30.4 in West 5.7 mph 9.2 mph 98% 0 in 114 W/m2
10:59 51.3 °F 50.7 °F 30.4 in WNW 6.7 mph 11.5 mph 98% 0 in 125 W/m2
11:04 51.1 °F 50.7 °F 30.4 in WNW 6.6 mph 13 mph 98% 0 in 132 W/m2
11:09 51.3 °F 50.7 °F 30.4 in WNW 6.3 mph 13 mph 98% 0 in 111 W/m2
11:14 51.3 °F 50.7 °F 30.4 in WNW 7.8 mph 12 mph 98% 0 in 104 W/m2
11:19 51.3 °F 50.7 °F 30.4 in WNW 6.4 mph 12 mph 98% 0 in 118 W/m2
11:24 51.3 °F 50.7 °F 30.4 in West 6.8 mph 10.4 mph 98% 0 in 128 W/m2
11:29 51.3 °F 50.7 °F 30.4 in WNW 7.3 mph 12 mph 98% 0 in 139 W/m2
11:34 51.3 °F 50.7 °F 30.4 in WNW 6.6 mph 12 mph 98% 0 in 176 W/m2
11:39 51.4 °F 50.9 °F 30.4 in West 6.1 mph 10.4 mph 98% 0 in 195 W/m2
11:44 51.6 °F 51.1 °F 30.4 in WNW 5.2 mph 10 mph 98% 0 in 213 W/m2
11:49 51.8 °F 51.4 °F 30.4 in West 6.6 mph 12 mph 98% 0 in 258 W/m2
11:54 52 °F 51.4 °F 30.4 in West 8.4 mph 14 mph 98% 0 in 255 W/m2
11:59 52 °F 51.6 °F 30.4 in West 7.9 mph 14 mph 98% 0 in 287 W/m2
12:04 52.3 °F 51.8 °F 30.4 in West 6.3 mph 14 mph 98% 0 in 241 W/m2
12:09 52.7 °F 52.2 °F 30.4 in WNW 6.1 mph 12 mph 98% 0 in 241 W/m2
12:14 52.9 °F 52.2 °F 30.4 in West 6.6 mph 13 mph 97.2% 0 in 225 W/m2
12:19 53.1 °F 52.2 °F 30.4 in West 5.3 mph 13 mph 97% 0 in 214 W/m2
12:24 53.2 °F 52.3 °F 30.4 in West 6.5 mph 10 mph 96.2% 0 in 202 W/m2
12:29 53.4 °F 52.3 °F 30.4 in West 6.5 mph 10.4 mph 96% 0 in 188 W/m2
12:34 53.6 °F 52.5 °F 30.4 in West 6.3 mph 10.4 mph 95.8% 0 in 172 W/m2
12:39 53.8 °F 52.3 °F 30.4 in West 7.4 mph 10.4 mph 95% 0 in 179 W/m2
12:44 54 °F 52.5 °F 30.4 in West 6.8 mph 11.5 mph 95% 0 in 183 W/m2
12:49 54.3 °F 52.7 °F 30.4 in West 5.8 mph 12 mph 94.6% 0 in 186 W/m2
12:54 54.5 °F 52.9 °F 30.4 in West 4.6 mph 12 mph 94% 0 in 186 W/m2
12:59 54.9 °F 52.9 °F 30.4 in West 5.5 mph 11.5 mph 93.2% 0 in 178 W/m2
13:04 54.9 °F 52.9 °F 30.4 in West 5.5 mph 12 mph 93% 0 in 162 W/m2
13:09 54.9 °F 52.7 °F 30.4 in West 7 mph 12 mph 92.1% 0 in 151 W/m2
13:14 55 °F 52.9 °F 30.4 in West 5.7 mph 12 mph 92% 0 in 148 W/m2
13:19 55.2 °F 52.7 °F 30.4 in West 5.8 mph 11.5 mph 91.3% 0 in 144 W/m2
13:24 55.2 °F 52.7 °F 30.4 in West 4.5 mph 12 mph 91% 0 in 141 W/m2
13:29 55.4 °F 52.9 °F 30.4 in West 4.9 mph 9 mph 91% 0 in 137 W/m2
13:34 55.6 °F 52.9 °F 30.4 in West 5.3 mph 9 mph 91% 0 in 132 W/m2
13:39 55.4 °F 52.5 °F 30.4 in West 6.6 mph 10.4 mph 90.2% 0 in 127 W/m2
13:44 55.4 °F 52.5 °F 30.4 in West 7.2 mph 10.4 mph 90% 0 in 116 W/m2
13:49 55.4 °F 52.5 °F 30.4 in West 6 mph 10 mph 90% 0 in 118 W/m2
13:54 55.6 °F 52.7 °F 30.4 in West 5.7 mph 9.2 mph 90% 0 in 118 W/m2
13:59 55.6 °F 52.7 °F 30.4 in West 5.2 mph 10 mph 90% 0 in 118 W/m2
14:04 55.6 °F 52.7 °F 30.4 in West 5.5 mph 10.4 mph 90% 0 in 118 W/m2
14:09 55.6 °F 52.7 °F 30.4 in West 4.6 mph 10 mph 90% 0 in 120 W/m2
14:14 55.8 °F 52.9 °F 30.4 in West 4.3 mph 8.1 mph 90% 0 in 120 W/m2
14:19 55.8 °F 52.7 °F 30.4 in West 5.3 mph 9.2 mph 89.2% 0 in 120 W/m2
14:24 55.9 °F 52.7 °F 30.4 in West 5 mph 9 mph 89% 0 in 118 W/m2
14:29 55.9 °F 52.9 °F 30.4 in West 4 mph 5.8 mph 89.4% 0 in 109 W/m2
14:34 55.9 °F 52.9 °F 30.4 in West 4.8 mph 7 mph 89.5% 0 in 97 W/m2
14:39 55.9 °F 52.7 °F 30.4 in West 4.2 mph 7 mph 89% 0 in 91 W/m2
14:44 55.9 °F 52.7 °F 30.4 in West 3.6 mph 6 mph 89% 0 in 90 W/m2
14:49 55.9 °F 52.7 °F 30.4 in West 3 mph 6 mph 89% 0 in 90 W/m2
14:54 55.9 °F 52.9 °F 30.4 in West 3.4 mph 5 mph 89% 0 in 93 W/m2
14:59 56.1 °F 53.1 °F 30.4 in West 2.6 mph 5 mph 89.3% 0 in 93 W/m2
15:04 56.1 °F 53.2 °F 30.4 in West 3.4 mph 5 mph 89.7% 0 in 77 W/m2
15:09 56.1 °F 53.2 °F 30.4 in West 3.8 mph 7 mph 90% 0 in 77 W/m2
15:14 56.1 °F 53.4 °F 30.4 in West 3.9 mph 7 mph 90.8% 0 in 77 W/m2
15:19 56.1 °F 53.2 °F 30.4 in West 3.1 mph 6 mph 90.4% 0 in 76 W/m2
15:24 56.1 °F 53.2 °F 30.4 in West 2.1 mph 5 mph 90% 0 in 70 W/m2
15:29 56.1 °F 53.2 °F 30.4 in WSW 1.9 mph 4 mph 90.4% 0 in 62 W/m2
15:34 55.9 °F 53.1 °F 30.4 in West 2.2 mph 3.5 mph 90% 0 in 56 W/m2
15:39 55.9 °F 53.1 °F 30.4 in West 2.4 mph 3.5 mph 90% 0 in 56 W/m2
15:44 55.8 °F 52.9 °F 30.4 in WSW 2.2 mph 4 mph 90% 0 in 54 W/m2
15:49 55.6 °F 52.7 °F 30.4 in West 3.2 mph 4 mph 90% 0 in 49 W/m2
15:54 55.6 °F 52.7 °F 30.4 in West 2.5 mph 4 mph 90% 0 in 46 W/m2
15:59 55.4 °F 52.5 °F 30.4 in West 1.7 mph 4 mph 90% 0 in 40 W/m2
16:04 55.2 °F 52.3 °F 30.4 in West 2.5 mph 4 mph 90% 0 in 37 W/m2
16:09 55 °F 52.2 °F 30.4 in West 2.4 mph 4 mph 90% 0 in 33 W/m2
16:14 55 °F 52.2 °F 30.4 in West 1.3 mph 3.5 mph 90% 0 in 28 W/m2
16:19 54.9 °F 52 °F 30.4 in West 0.6 mph 3 mph 90% 0 in 25 W/m2
16:24 54.7 °F 51.8 °F 30.4 in West 0.7 mph 2.3 mph 90.4% 0 in 21 W/m2
16:29 54.3 °F 51.8 °F 30.4 in West 0.2 mph 2 mph 91% 0 in 18 W/m2
16:34 54 °F 51.4 °F 30.4 in Calm   1 mph 91% 0 in 12 W/m2
16:39 53.6 °F 51.3 °F 30.4 in Calm     91.8% 0 in 9 W/m2
16:44 53.2 °F 51.1 °F 30.4 in Calm     92% 0 in 5 W/m2
16:49 52.9 °F 50.7 °F 30.4 in Calm     92.2% 0 in 0 W/m2
16:54 52.9 °F 50.9 °F 30.4 in Calm     93% 0 in 0 W/m2
16:59 52.7 °F 50.7 °F 30.4 in West 0.4 mph 2.3 mph 93% 0 in 0 W/m2
17:04 52.3 °F 50.4 °F 30.4 in SSW 2 mph 3.5 mph 93% 0 in 0 W/m2
17:09 52.2 °F 50.4 °F 30.4 in ESE 2.4 mph 3.5 mph 93.7% 0 in 0 W/m2
17:14 52 °F 50.2 °F 30.4 in ESE 2 mph 3.5 mph 94% 0 in 0 W/m2
17:19 52 °F 50.2 °F 30.4 in ESE 0.2 mph 3 mph 94% 0 in 0 W/m2
17:24 52 °F 50.2 °F 30.4 in Calm   1 mph 94% 0 in 0 W/m2
17:29 51.8 °F 50 °F 30.4 in Calm   1.2 mph 94% 0 in 0 W/m2
17:34 51.4 °F 49.6 °F 30.4 in Calm   1 mph 94% 0 in 0 W/m2
17:39 51.3 °F 49.6 °F 30.4 in Calm     94.4% 0 in 0 W/m2
17:44 51.3 °F 49.8 °F 30.4 in Calm     95% 0 in 0 W/m2
17:49 51.1 °F 49.6 °F 30.3 in Calm     95% 0 in 0 W/m2
17:54 50.9 °F 49.6 °F 30.3 in Calm     95% 0 in 0 W/m2
17:59 50.9 °F 49.5 °F 30.3 in Calm     95% 0 in 0 W/m2
18:04 50.9 °F 49.5 °F 30.3 in Calm     95% 0 in 0 W/m2
18:09 50.9 °F 49.5 °F 30.3 in Calm     95% 0 in 0 W/m2
18:14 50.7 °F 49.3 °F 30.3 in Calm   1.2 mph 95% 0 in 0 W/m2
18:19 50.7 °F 49.3 °F 30.3 in Calm   1.2 mph 95% 0 in 0 W/m2
18:24 50.7 °F 49.3 °F 30.3 in SSE 0.4 mph 2.3 mph 95% 0 in 0 W/m2
18:29 50.5 °F 49.1 °F 30.3 in SW 0.9 mph 2.3 mph 95% 0 in 0 W/m2
18:34 50.5 °F 49.1 °F 30.3 in SW 0.2 mph 2 mph 95% 0 in 0 W/m2
18:39 50.2 °F 48.9 °F 30.3 in SW 0.1 mph 1.2 mph 95% 0 in 0 W/m2
18:44 50.2 °F 48.7 °F 30.3 in SW 0.7 mph 2.3 mph 95% 0 in 0 W/m2
18:49 50 °F 48.6 °F 30.3 in SW 0.9 mph 2.3 mph 95% 0 in 0 W/m2
18:54 49.8 °F 48.4 °F 30.3 in WSW 1.4 mph 2.3 mph 95% 0 in 0 W/m2
18:59 49.6 °F 48.4 °F 30.3 in WSW 0.2 mph 2.3 mph 95.4% 0 in 0 W/m2
19:04 49.5 °F 48.4 °F 30.3 in Calm   2 mph 96% 0 in 0 W/m2
19:09 49.3 °F 48 °F 30.3 in WSW 0.8 mph 2.3 mph 95.2% 0 in 0 W/m2
19:14 49.1 °F 48 °F 30.3 in West 1.5 mph 2.3 mph 95.8% 0 in 0 W/m2
19:19 49.1 °F 48 °F 30.3 in West 0.9 mph 2.3 mph 96% 0 in 0 W/m2
19:24 49.1 °F 48 °F 30.3 in Calm   2 mph 96% 0 in 0 W/m2
19:29 49.3 °F 48.2 °F 30.3 in Calm     96% 0 in 0 W/m2
19:34 49.3 °F 48.2 °F 30.3 in West 0.8 mph 2.3 mph 96% 0 in 0 W/m2
19:39 49.3 °F 48.2 °F 30.3 in West 0.3 mph 2.3 mph 96% 0 in 0 W/m2
19:44 49.5 °F 48.4 °F 30.3 in West 0.7 mph 2.3 mph 96% 0 in 0 W/m2
19:49 49.3 °F 48.2 °F 30.3 in West 1.7 mph 3.5 mph 96% 0 in 0 W/m2
19:54 49.3 °F 48.2 °F 30.3 in West 1.7 mph 3.5 mph 96% 0 in 0 W/m2
19:59 49.3 °F 48.2 °F 30.3 in West 0.9 mph 3 mph 96% 0 in 0 W/m2
20:04 49.5 °F 48.2 °F 30.3 in West 0.1 mph 2 mph 96% 0 in 0 W/m2
20:09 49.3 °F 48.2 °F 30.3 in West 0.4 mph 1.2 mph 96% 0 in 0 W/m2
20:14 49.1 °F 48 °F 30.3 in Calm   1 mph 96% 0 in 0 W/m2
20:19 49.1 °F 47.8 °F 30.3 in West 0.5 mph 1.2 mph 96% 0 in 0 W/m2
20:24 49.1 °F 48 °F 30.3 in West 0.2 mph 1.2 mph 96% 0 in 0 W/m2
20:29 49.1 °F 47.8 °F 30.3 in Calm   1 mph 96% 0 in 0 W/m2
20:34 48.9 °F 47.8 °F 30.3 in Calm     96% 0 in 0 W/m2
20:39 48.9 °F 47.8 °F 30.3 in Calm     96% 0 in 0 W/m2
20:44 48.7 °F 47.7 °F 30.3 in Calm     96% 0 in 0 W/m2
20:49 48.7 °F 47.7 °F 30.3 in Calm     96% 0 in 0 W/m2
20:54 48.7 °F 47.7 °F 30.3 in Calm     96% 0 in 0 W/m2
20:59 48.9 °F 47.7 °F 30.3 in Calm     96% 0 in 0 W/m2
21:04 48.9 °F 47.8 °F 30.3 in Calm     96% 0 in 0 W/m2
21:09 48.9 °F 47.7 °F 30.3 in Calm     96% 0 in 0 W/m2
21:14 48.9 °F 47.8 °F 30.3 in Calm     96% 0 in 0 W/m2
21:19 48.9 °F 47.8 °F 30.3 in Calm     96% 0 in 0 W/m2
21:24 48.9 °F 47.8 °F 30.3 in Calm     96% 0 in 0 W/m2
21:29 49.1 °F 48 °F 30.3 in Calm     96% 0 in 0 W/m2
21:34 49.1 °F 48 °F 30.3 in Calm     96% 0 in 0 W/m2
21:39 49.1 °F 48.2 °F 30.3 in Calm     96.2% 0 in 0 W/m2
21:44 49.3 °F 48.4 °F 30.3 in Calm     96.5% 0 in 0 W/m2
21:49 49.5 °F 48.4 °F 30.3 in Calm     96.1% 0 in 0 W/m2
21:54 49.5 °F 48.4 °F 30.3 in Calm     96% 0 in 0 W/m2
21:59 49.5 °F 48.4 °F 30.3 in Calm     96% 0 in 0 W/m2
22:04 49.5 °F 48.4 °F 30.3 in Calm     96% 0 in 0 W/m2
22:09 49.5 °F 48.4 °F 30.3 in Calm     96% 0 in 0 W/m2
22:14 49.5 °F 48.4 °F 30.3 in Calm     96% 0 in 0 W/m2
22:19 49.5 °F 48.4 °F 30.3 in Calm     96% 0 in 0 W/m2
22:24 49.5 °F 48.4 °F 30.3 in Calm     96% 0 in 0 W/m2
22:29 49.5 °F 48.4 °F 30.3 in Calm     96% 0 in 0 W/m2
22:34 49.6 °F 48.6 °F 30.3 in Calm     96% 0 in 0 W/m2
22:39 49.8 °F 48.9 °F 30.3 in Calm     96.8% 0 in 0 W/m2
22:44 49.8 °F 48.7 °F 30.3 in Calm     96.6% 0 in 0 W/m2
22:49 49.8 °F 48.9 °F 30.3 in Calm     97% 0 in 0 W/m2
22:54 49.8 °F 48.9 °F 30.3 in Calm     97% 0 in 0 W/m2
22:59 49.8 °F 49.1 °F 30.3 in Calm     97% 0 in 0 W/m2
23:04 50 °F 49.3 °F 30.3 in Calm     97% 0 in 0 W/m2
23:09 50 °F 49.1 °F 30.3 in Calm     97% 0 in 0 W/m2
23:14 49.8 °F 49.1 °F 30.3 in Calm     97% 0 in 0 W/m2
23:19 49.8 °F 48.9 °F 30.3 in Calm     97% 0 in 0 W/m2
23:24 49.6 °F 48.9 °F 30.3 in Calm     96.8% 0 in 0 W/m2
23:29 49.6 °F 48.6 °F 30.3 in Calm     96% 0 in 0 W/m2
23:34 49.6 °F 48.4 °F 30.3 in NNE 1.1 mph 4 mph 96% 0 in 0 W/m2
23:39 49.6 °F 48.7 °F 30.3 in NNE 2.9 mph 5 mph 96.6% 0 in 0 W/m2
23:44 49.8 °F 49.1 °F 30.3 in NE 2.9 mph 5 mph 97% 0 in 0 W/m2
23:49 49.8 °F 48.9 °F 30.3 in NE 1.9 mph 5 mph 96.8% 0 in 0 W/m2
23:54 49.6 °F 48.6 °F 30.3 in NE 1.7 mph 3.5 mph 96.2% 0 in 0 W/m2
23:59 49.5 °F 48.7 °F 30.3 in NE 1.9 mph 3.5 mph 96.9% 0 in 0 W/m2
Stazione Meteorologica MeteoMincio Rivalta s/M (MN)
Con i complimenti di Weather Underground - 4 mb


METEO PILLOLE
Il ciclone tropicale di maggiore durata
Oceano Pacifico
Il sistema di tempeste battezzato John percorre in lungo e in largo il Pacifico per ben 31 giorni, tra l'agosto e il settembre 1994.

Do NOT follow this link or you will be banned from the site!